This is the latest recevied weather packets stored in our database for station/object HS2LXA-13. If no packets are shown the sender has not sent any weather packets the latest 10 day(s).
| Time | Temp. | Humidity | Pressure | Rain* | Wind** | Luminosity | Snow |
|---|---|---|---|---|---|---|---|
| 1777911583 | 25.56° C | 83% | 1012.2 hPa | 11.43 mm | - | 0 W/m² | - |
| 1777910982 | 23.89° C | 84% | 1012.6 hPa | 10.92 mm | - | 0 W/m² | - |
| 1777910386 | 23.33° C | 82% | 1013 hPa | 9.91 mm | - | 0 W/m² | - |
| 1777909779 | 23.33° C | 82% | 1013 hPa | 6.6 mm | - | 0 W/m² | - |
| 1777909178 | 25° C | 78% | 1012.5 hPa | 0.76 mm | - | 0 W/m² | - |
| 1777908576 | 28.89° C | 80% | 1012.4 hPa | 0 mm | - | 0 W/m² | - |
| 1777907975 | 28.89° C | 81% | 1012.2 hPa | 0 mm | - | 0 W/m² | - |
| 1777907374 | 30° C | 85% | 1011.9 hPa | 0 mm | - | 0 W/m² | - |
| 1777906773 | 30.56° C | 86% | 1011.7 hPa | 0 mm | - | 0 W/m² | - |
| 1777906164 | 30.56° C | 87% | 1011.5 hPa | 0 mm | - | 0 W/m² | - |
| 1777905561 | 30.56° C | 86% | 1011.2 hPa | 0 mm | - | 0 W/m² | - |
| 1777904956 | 30.56° C | 88% | 1010.8 hPa | 0 mm | - | 0 W/m² | - |
| 1777904353 | 30.56° C | 87% | 1010.7 hPa | 0 mm | - | 0 W/m² | - |
| 1777903752 | 30.56° C | 86% | 1010.6 hPa | 0 mm | - | 0 W/m² | - |
| 1777903150 | 30° C | 85% | 1010.5 hPa | 0 mm | - | 0 W/m² | - |
| 1777902550 | 31.11° C | 84% | 1010.4 hPa | 0 mm | - | 0 W/m² | - |
| 1777901949 | 31.11° C | 84% | 1010.3 hPa | 0 mm | - | 0 W/m² | - |
| 1777901347 | 31.11° C | 85% | 1010 hPa | 0 mm | - | 0 W/m² | - |
| 1777900747 | 31.67° C | 84% | 1009.8 hPa | 0 mm | - | 0 W/m² | - |
| 1777900145 | 31.67° C | 85% | 1009.7 hPa | 0 mm | - | 0 W/m² | - |
| 1777899069 | 31.67° C | 84% | 1009.4 hPa | 0 mm | - | 0 W/m² | - |
| 1777898467 | 31.67° C | 84% | 1009.2 hPa | 0 mm | - | 0 W/m² | - |
| 1777897867 | 31.67° C | 84% | 1009.1 hPa | 0 mm | - | 0 W/m² | - |
| 1777897266 | 31.67° C | 83% | 1008.9 hPa | 0 mm | - | 0 W/m² | - |
| 1777896666 | 31.67° C | 83% | 1008.7 hPa | 0 mm | - | 0 W/m² | - |
* Rain latest hour (hover to see other rain measurements)
** Current wind speed in m/s (hover to see current wind gust speed)